Sigfox identifier Datetime Temperature Humidity SNR
003C4F10 2019-02-20 13:56:18 20.9 23 23.8
003C4F10 2019-02-20 13:26:05 20.9 24 23.8
003C4F10 2019-02-20 12:55:53 20.9 25 23
003C4F10 2019-02-20 12:25:43 20.8 25 23
003C4F10 2019-02-20 11:55:29 20.8 26 23
003C4F10 2019-02-20 11:25:16 20.9 26 22
003C4F10 2019-02-20 10:55:04 20.8 27 20.9
003C4F10 2019-02-20 10:24:52 20.8 27 20.9
003C4F10 2019-02-20 09:54:42 20.8 27 21
003C4F10 2019-02-20 09:24:28 20.8 27 21
003C4F10 2019-02-20 08:54:11 20.7 27 19.3
003C4F10 2019-02-20 08:23:58 20.7 27 19.3
003C4F10 2019-02-20 07:53:44 20.7 27 19.2
003C4F10 2019-02-20 07:23:33 20.7 27 16.6
003C4F10 2019-02-20 06:53:17 20.7 27 17
003C4F10 2019-02-20 06:23:02 20.7 27 17
003C4F10 2019-02-20 05:52:47 20.8 27 16.8
003C4F10 2019-02-20 05:22:33 20.8 27 16.6
003C4F10 2019-02-20 04:52:19 20.8 27 16.6
003C4F10 2019-02-20 04:22:07 20.8 27 16.8
003C4F10 2019-02-20 03:51:56 20.8 27 16.7
003C4F10 2019-02-20 03:21:39 20.8 27 16.8
003C4F10 2019-02-20 02:51:29 20.8 27 16.8
003C4F10 2019-02-20 02:21:14 20.8 27 16.8
003C4F10 2019-02-20 01:51:01 20.8 27 16.5
003C4F10 2019-02-20 01:20:08 20.8 27 16.4
003C4F10 2019-02-20 00:49:56 20.8 27 16.5
003C4F10 2019-02-20 00:19:45 20.8 27 16.5
003C4F10 2019-02-19 23:49:34 20.8 27 19.1
003C4F10 2019-02-19 23:19:22 20.9 27 20.8
003C4F10 2019-02-19 22:49:09 20.9 27 20.7
003C4F10 2019-02-19 22:18:55 20.9 27 20.7
003C4F10 2019-02-19 21:48:42 20.9 27 22
003C4F10 2019-02-19 21:18:31 20.9 27 22
003C4F10 2019-02-19 20:48:20 20.9 27 22
003C4F10 2019-02-19 20:18:09 20.9 27 22
003C4F10 2019-02-19 19:47:55 21 27 22
003C4F10 2019-02-19 19:17:43 21 27 22
003C4F10 2019-02-19 18:47:32 21 27 22
003C4F10 2019-02-19 18:17:21 21.1 27 21.9
003C4F10 2019-02-19 17:47:09 21.1 27 21.9
003C4F10 2019-02-19 17:16:57 21.1 27 22
003C4F10 2019-02-19 16:46:45 21.1 28 22
003C4F10 2019-02-19 16:16:33 21.1 27 22.1
003C4F10 2019-02-19 15:46:21 21.1 27 22.2
003C4F10 2019-02-19 15:16:08 21.1 27 22.1
003C4F10 2019-02-19 14:46:01 21.1 27 22.1
003C4F10 2019-02-19 14:15:44 21.1 27 22.1
003C4F10 2019-02-19 13:45:31 21.1 27 22.2
003C4F10 2019-02-19 13:15:18 21.1 27 22.2
003C4F10 2019-02-19 12:45:04 21 26 22.2
003C4F10 2019-02-19 12:14:52 21 26 22.2
003C4F10 2019-02-19 11:44:40 21 27 22.3
003C4F10 2019-02-19 11:14:28 21 26 21.3
003C4F10 2019-02-19 10:44:15 20.9 26 19.8
003C4F10 2019-02-19 10:14:05 20.9 26 19.8
003C4F10 2019-02-19 09:43:48 20.9 26 19.9
003C4F10 2019-02-19 09:13:38 20.8 26 17.6
003C4F10 2019-02-19 08:43:22 20.8 25 17.5
003C4F10 2019-02-19 08:13:08 20.8 25 17.4
003C4F10 2019-02-19 07:42:54 20.8 25 17.4
003C4F10 2019-02-19 07:12:40 20.8 25 17.4
003C4F10 2019-02-19 06:42:28 20.8 25 17.3
003C4F10 2019-02-19 06:12:12 20.8 25 17
003C4F10 2019-02-19 05:41:59 20.8 25 17
003C4F10 2019-02-19 05:11:46 20.8 25 16.9
003C4F10 2019-02-19 04:41:34 20.8 25 16.5
003C4F10 2019-02-19 04:11:21 20.8 24 16.5
003C4F10 2019-02-19 03:41:09 20.8 24 19
003C4F10 2019-02-19 03:10:57 20.8 24 18.9
003C4F10 2019-02-19 02:40:45 20.8 24 18.9
003C4F10 2019-02-19 02:10:33 20.8 24 18.8
003C4F10 2019-02-19 01:40:20 20.8 24 19
003C4F10 2019-02-19 01:10:07 20.8 24 19.2
003C4F10 2019-02-19 00:39:53 20.8 24 19.5
003C4F10 2019-02-19 00:08:56 20.8 23 19.8
003C4F10 2019-02-18 23:38:42 20.8 23 19.8
003C4F10 2019-02-18 23:08:29 20.8 23 20
003C4F10 2019-02-18 22:38:14 20.8 23 20.2
003C4F10 2019-02-18 22:07:59 20.8 23 20.4
003C4F10 2019-02-18 21:37:45 20.8 23 20.7
003C4F10 2019-02-18 21:07:30 20.8 23 20.7
003C4F10 2019-02-18 20:37:16 20.9 22 20.8
003C4F10 2019-02-18 20:07:01 20.9 22 21
003C4F10 2019-02-18 19:36:49 20.9 22 21.1
003C4F10 2019-02-18 19:06:38 20.9 22 21.2
003C4F10 2019-02-18 18:36:20 20.9 22 21.4
003C4F10 2019-02-18 18:06:07 20.9 22 21.4
003C4F10 2019-02-18 17:35:54 21 22 21.6
003C4F10 2019-02-18 17:05:41 21 21 21.7
003C4F10 2019-02-18 16:35:28 21 21 21.8
003C4F10 2019-02-18 16:05:14 21 21 21.9
003C4F10 2019-02-18 15:35:01 21 21 22.1
003C4F10 2019-02-18 15:04:48 21.1 21 21
003C4F10 2019-02-18 14:34:35 21.1 21 21
003C4F10 2019-02-18 14:04:24 21.1 20 21.1
003C4F10 2019-02-18 13:34:08 21.2 20 21.3
003C4F10 2019-02-18 13:03:50 21.3 20 21.3
003C4F10 2019-02-18 12:33:34 21.4 19 21.2
003C4F10 2019-02-18 12:03:20 21.5 19 21.2
003C4F10 2019-02-18 11:33:06 21.4 19 21
003C4F10 2019-02-18 11:02:53 21.4 19 21
003C4F10 2019-02-18 10:32:39 21.3 19 20.9
003C4F10 2019-02-18 10:02:27 21.3 19 20.7
003C4F10 2019-02-18 09:32:12 21.3 19 20.7
003C4F10 2019-02-18 09:01:58 21.2 19 20.6
003C4F10 2019-02-18 08:31:43 21.2 19 20.6
003C4F10 2019-02-18 08:01:30 21.1 19 20.6
003C4F10 2019-02-18 07:31:17 21.1 18 20.5
003C4F10 2019-02-18 07:01:03 21 18 20.5
003C4F10 2019-02-18 06:30:48 21 18 20.4
003C4F10 2019-02-18 06:00:34 21.1 18 20.3
003C4F10 2019-02-18 05:30:20 21 18 20.3
003C4F10 2019-02-18 05:00:06 21 18 20.2
003C4F10 2019-02-18 04:29:53 21 19 20.2
003C4F10 2019-02-18 03:59:39 21 19 20.1
003C4F10 2019-02-18 03:29:26 21 19 20.1
003C4F10 2019-02-18 02:59:11 21.1 19 20.1
003C4F10 2019-02-18 02:28:57 21.1 19 20.1
003C4F10 2019-02-18 01:58:42 21.1 19 20
003C4F10 2019-02-18 01:28:26 21.1 19 20.2
003C4F10 2019-02-18 00:58:11 21.1 19 20.2
003C4F10 2019-02-18 00:27:56 21.1 19 20.3
003C4F10 2019-02-17 23:57:41 21.1 19 20.3
003C4F10 2019-02-17 23:27:26 21.1 19 20.1
003C4F10 2019-02-17 22:56:28 21.1 19 21.5
003C4F10 2019-02-17 22:26:14 21.1 19 21.6
003C4F10 2019-02-17 21:55:58 21.1 20 21.7
003C4F10 2019-02-17 21:25:43 21.1 20 21.7
003C4F10 2019-02-17 20:55:28 21.1 20 21.7
003C4F10 2019-02-17 20:25:12 21.1 20 21.7
003C4F10 2019-02-17 19:54:57 21.1 20 21.6
003C4F10 2019-02-17 19:24:40 21.1 20 21.6
003C4F10 2019-02-17 18:54:24 21.1 20 22.6
003C4F10 2019-02-17 18:24:09 21.1 20 22.7
003C4F10 2019-02-17 17:53:52 21.1 20 22.6
003C4F10 2019-02-17 17:23:36 21.2 20 22.7
003C4F10 2019-02-17 16:53:20 21.2 20 22.8
003C4F10 2019-02-17 16:23:04 21.1 20 22.9
003C4F10 2019-02-17 15:52:48 21.2 20 22.9
003C4F10 2019-02-17 15:22:33 21.2 20 23
003C4F10 2019-02-17 14:52:19 21.2 21 23
003C4F10 2019-02-17 14:22:04 21.2 21 23
003C4F10 2019-02-17 13:51:48 21.2 21 23
003C4F10 2019-02-17 13:21:33 21.3 21 23.2
003C4F10 2019-02-17 12:51:18 21.3 21 23.1
003C4F10 2019-02-17 12:21:03 21.2 21 23
003C4F10 2019-02-17 11:50:47 21.2 21 23.2
003C4F10 2019-02-17 11:20:33 21.2 21 23.2
003C4F10 2019-02-17 10:50:19 21.2 21 23.3
003C4F10 2019-02-17 10:20:04 21.1 21 22.5
003C4F10 2019-02-17 09:49:50 21.2 21 22.4
003C4F10 2019-02-17 09:19:35 21.1 21 22.4
003C4F10 2019-02-17 08:49:21 21.1 21 22.4
003C4F10 2019-02-17 08:19:05 21.1 21 22.5
003C4F10 2019-02-17 07:48:48 21.2 22 22.5
003C4F10 2019-02-17 07:18:33 21.2 22 22.6
003C4F10 2019-02-17 06:48:17 21.2 22 22.5
003C4F10 2019-02-17 06:18:02 21.2 22 21.5
003C4F10 2019-02-17 05:47:47 21.2 22 21.5
003C4F10 2019-02-17 05:17:30 21.2 22 21.5
003C4F10 2019-02-17 04:47:14 21.2 23 21.4
003C4F10 2019-02-17 04:16:58 21.2 23 21.3
003C4F10 2019-02-17 03:46:43 21.2 23 22.3
003C4F10 2019-02-17 03:16:28 21.2 23 22.2
003C4F10 2019-02-17 02:46:13 21.2 24 22.3
003C4F10 2019-02-17 02:15:58 21.2 24 22.2
003C4F10 2019-02-17 01:45:45 21.2 24 22.2
003C4F10 2019-02-17 01:15:30 21.2 24 22.1
003C4F10 2019-02-17 00:45:16 21.2 24 21.9
003C4F10 2019-02-17 00:15:02 21.2 24 21.9
003C4F10 2019-02-16 23:44:48 21.2 24 21.9
003C4F10 2019-02-16 23:14:33 21.2 24 21.6
003C4F10 2019-02-16 22:44:18 21.3 25 21.6
003C4F10 2019-02-16 22:14:03 21.3 25 22.5
003C4F10 2019-02-16 21:43:06 21.3 25 22.4
003C4F10 2019-02-16 21:12:51 21.3 25 22.3
003C4F10 2019-02-16 20:42:37 21.3 25 22.2
003C4F10 2019-02-16 20:12:21 21.3 25 22.2
003C4F10 2019-02-16 19:42:06 21.2 25 22.2
003C4F10 2019-02-16 19:11:50 21.2 25 22.1
003C4F10 2019-02-16 18:41:35 21.2 25 22.1
003C4F10 2019-02-16 18:11:20 21.2 25 22.2
003C4F10 2019-02-16 17:41:05 21.3 25 22.2
003C4F10 2019-02-16 17:10:51 21.4 25 22.1
003C4F10 2019-02-16 16:40:35 21.4 25 22.1
003C4F10 2019-02-16 15:40:05 21.4 25 22.3
003C4F10 2019-02-16 15:09:50 21.4 25 21.2
003C4F10 2019-02-16 14:39:34 21.4 25 21.1
003C4F10 2019-02-16 14:09:19 21.4 25 21
003C4F10 2019-02-16 13:39:05 21.4 25 21
003C4F10 2019-02-16 13:08:49 21.4 25 21
003C4F10 2019-02-16 12:38:34 21.3 25 21.1
003C4F10 2019-02-16 12:08:19 21.3 25 21.1
003C4F10 2019-02-16 11:38:04 21.3 25 21.1
003C4F10 2019-02-16 11:07:49 21.3 25 21.3
003C4F10 2019-02-16 10:37:33 21.2 25 21.3
003C4F10 2019-02-16 10:07:19 21.2 25 21.2
003C4F10 2019-02-16 09:37:00 21.2 25 19.9
003C4F10 2019-02-16 09:06:44 21.2 25 20.1
003C4F10 2019-02-16 08:36:28 21.3 25 20.1
003C4F10 2019-02-16 08:06:12 21.2 25 20.3
003C4F10 2019-02-16 07:35:57 21.3 25 20.4
003C4F10 2019-02-16 07:05:41 21.2 25 20.1
003C4F10 2019-02-16 06:35:25 21.3 25 20.1
003C4F10 2019-02-16 06:05:10 21.3 25 20.3
003C4F10 2019-02-16 05:34:54 21.3 25 20.1
003C4F10 2019-02-16 05:04:38 21.3 26 20.4
003C4F10 2019-02-16 04:34:23 21.3 25 20.6
003C4F10 2019-02-16 04:04:08 21.3 25 20.5
003C4F10 2019-02-16 03:33:51 21.3 25 21.7
003C4F10 2019-02-16 03:03:37 21.3 25 21.7
003C4F10 2019-02-16 02:33:22 21.3 25 21.8
003C4F10 2019-02-16 02:03:08 21.3 25 22
003C4F10 2019-02-16 01:32:53 21.3 25 22.2
003C4F10 2019-02-16 01:02:39 21.3 25 22.2
003C4F10 2019-02-16 00:32:24 21.3 26 22.2
003C4F10 2019-02-16 00:02:08 21.4 26 22.4
003C4F10 2019-02-15 23:31:53 21.4 26 22.5
003C4F10 2019-02-15 23:01:36 21.4 26 22.6
003C4F10 2019-02-15 22:31:20 21.5 25 22.6
003C4F10 2019-02-15 22:01:04 21.5 26 22.6
003C4F10 2019-02-15 21:30:49 21.5 25 22.6
003C4F10 2019-02-15 21:00:34 21.6 25 22.5
003C4F10 2019-02-15 20:29:36 21.6 25 22.5
003C4F10 2019-02-15 19:59:22 21.7 25 22.6
003C4F10 2019-02-15 19:29:06 21.7 25 22.6
003C4F10 2019-02-15 18:58:52 21.8 25 22.6
003C4F10 2019-02-15 18:28:35 21.8 25 22.7
003C4F10 2019-02-15 17:58:18 21.8 25 22.8
003C4F10 2019-02-15 17:28:02 21.8 25 22.9
003C4F10 2019-02-15 16:57:48 21.8 25 23.6
003C4F10 2019-02-15 16:27:32 21.8 24 23.6
003C4F10 2019-02-15 15:57:17 21.8 24 23.6
003C4F10 2019-02-15 15:27:02 21.8 24 23.6
003C4F10 2019-02-15 14:56:48 21.8 24 23
003C4F10 2019-02-15 14:26:32 21.8 24 23
003C4F10 2019-02-15 13:56:15 21.8 24 23.1
003C4F10 2019-02-15 13:25:59 21.7 24 23.1
003C4F10 2019-02-15 12:55:43 21.7 24 22.9
003C4F10 2019-02-15 12:25:26 21.7 24 23
003C4F10 2019-02-15 11:55:11 21.7 24 23
003C4F10 2019-02-15 11:24:56 21.6 25 22.9
003C4F10 2019-02-15 10:54:42 21.6 25 22.9
003C4F10 2019-02-15 10:24:26 21.6 25 23
003C4F10 2019-02-15 09:54:12 21.5 25 23.1
003C4F10 2019-02-15 09:23:56 21.5 25 23.2
003C4F10 2019-02-15 08:53:39 21.5 25 23.3
003C4F10 2019-02-15 08:23:22 21.4 25 23.4
003C4F10 2019-02-15 07:53:04 21.4 25 23.4
003C4F10 2019-02-15 07:22:47 21.4 25 23.4
003C4F10 2019-02-15 06:52:30 21.4 25 23.4
003C4F10 2019-02-15 06:22:13 21.4 25 23.4
003C4F10 2019-02-15 05:51:58 21.4 25 24
003C4F10 2019-02-15 05:21:43 21.4 25 23.9
003C4F10 2019-02-15 04:51:28 21.4 26 23.7
003C4F10 2019-02-15 04:21:14 21.4 26 22.9
003C4F10 2019-02-15 03:50:59 21.4 26 22.8
003C4F10 2019-02-15 03:20:43 21.4 26 22.7
003C4F10 2019-02-15 02:50:27 21.4 26 22.6
003C4F10 2019-02-15 02:20:11 21.4 26 22.6
003C4F10 2019-02-15 01:49:56 21.5 26 22.5
003C4F10 2019-02-15 01:19:40 21.4 26 22.1
003C4F10 2019-02-15 00:49:23 21.5 26 21.9
003C4F10 2019-02-15 00:19:06 21.5 25 21.9
003C4F10 2019-02-14 23:48:51 21.5 25 21.8
003C4F10 2019-02-14 23:18:35 21.5 25 22.7
003C4F10 2019-02-14 22:48:19 21.5 25 22.5
003C4F10 2019-02-14 22:18:04 21.5 25 22.3
003C4F10 2019-02-14 21:47:47 21.5 25 22.1
003C4F10 2019-02-14 21:17:31 21.6 25 21.8
003C4F10 2019-02-14 20:47:16 21.6 25 21.6
003C4F10 2019-02-14 20:17:00 21.7 24 21.4
003C4F10 2019-02-14 19:46:46 21.8 24 21.2
003C4F10 2019-02-14 19:15:51 21.8 24 21.1
003C4F10 2019-02-14 18:45:36 21.9 24 21.1
003C4F10 2019-02-14 18:15:20 21.9 24 21.1
003C4F10 2019-02-14 17:45:05 21.9 24 20.8
003C4F10 2019-02-14 17:14:49 22 24 19.3
003C4F10 2019-02-14 16:44:34 22 24 19.4
003C4F10 2019-02-14 16:14:17 21.9 24 19.5
003C4F10 2019-02-14 15:44:01 21.8 24 19.6
003C4F10 2019-02-14 15:13:46 21.8 24 19.7
003C4F10 2019-02-14 14:43:29 21.7 24 19.9
003C4F10 2019-02-14 14:13:16 21.5 24 19.9
003C4F10 2019-02-14 13:42:58 21.4 24 19.8
003C4F10 2019-02-14 13:12:43 21.4 24 19.9
003C4F10 2019-02-14 12:42:26 21.3 24 19.9
003C4F10 2019-02-14 12:12:09 21.2 24 20
003C4F10 2019-02-14 11:41:54 21.2 24 20.1
003C4F10 2019-02-14 11:11:37 21.1 25 20.2
003C4F10 2019-02-14 10:41:21 21 25 18.3
003C4F10 2019-02-14 10:11:05 20.9 24 18.4
003C4F10 2019-02-14 09:40:50 20.9 24 18.6
003C4F10 2019-02-14 09:10:35 20.8 25 18.9
003C4F10 2019-02-14 08:40:19 20.8 25 18.9
003C4F10 2019-02-14 08:10:06 20.8 25 18.9
003C4F10 2019-02-14 07:39:52 20.8 25 18.9
003C4F10 2019-02-14 07:09:38 20.8 25 19
003C4F10 2019-02-14 06:39:23 20.9 25 19.3
003C4F10 2019-02-14 06:09:08 20.9 25 19.1
003C4F10 2019-02-14 05:38:53 20.9 25 18.8
003C4F10 2019-02-14 05:08:38 20.9 25 18.8
003C4F10 2019-02-14 04:38:25 20.9 25 18.7
003C4F10 2019-02-14 04:08:11 20.9 25 18.6
003C4F10 2019-02-14 03:37:57 20.9 25 18.4
003C4F10 2019-02-14 03:07:45 20.9 25 18.3
003C4F10 2019-02-14 02:37:32 20.9 25 18.3
003C4F10 2019-02-14 02:07:22 20.9 25 18.1
003C4F10 2019-02-14 01:37:08 20.9 25 18
003C4F10 2019-02-14 01:06:54 20.9 25 17.7
003C4F10 2019-02-14 00:36:40 20.9 25 17.5
003C4F10 2019-02-14 00:06:29 20.9 25 17.5
003C4F10 2019-02-13 23:36:14 20.9 25 17.3
003C4F10 2019-02-13 23:06:00 21 25 17.1
003C4F10 2019-02-13 22:35:46 21 25 16.7
003C4F10 2019-02-13 22:05:32 21.1 25 16.5
003C4F10 2019-02-13 21:35:19 21.1 25 16.3
003C4F10 2019-02-13 21:05:04 21.2 25 16
003C4F10 2019-02-13 20:34:49 21.2 25 15.7
003C4F10 2019-02-13 20:04:36 21.3 25 15.7
003C4F10 2019-02-13 19:34:24 21.4 25 15.6
003C4F10 2019-02-13 19:04:04 21.4 26 15.8
003C4F10 2019-02-13 18:33:49 21.4 26 16.4
003C4F10 2019-02-13 18:02:52 21.4 26 16.2
003C4F10 2019-02-13 17:32:38 21.4 26 16.4
003C4F10 2019-02-13 17:02:24 21.3 26 16.7
003C4F10 2019-02-13 16:32:10 21.3 26 17.2
003C4F10 2019-02-13 16:01:57 21.2 25 17.4
003C4F10 2019-02-13 15:31:48 21.2 25 17.9
003C4F10 2019-02-13 15:01:31 21.2 25 17.9
003C4F10 2019-02-13 14:31:15 21.1 24 18
003C4F10 2019-02-13 13:30:46 21.2 24 17.9
003C4F10 2019-02-13 13:00:30 21.1 24 18.2
003C4F10 2019-02-13 12:30:17 21.1 24 18.4
003C4F10 2019-02-13 12:00:01 21.1 24 18.5
003C4F10 2019-02-13 10:59:33 20.9 24 18.6
003C4F10 2019-02-13 10:29:18 20.9 23 18.7
003C4F10 2019-02-13 09:59:03 20.9 22 18.6
003C4F10 2019-02-13 09:28:48 20.8 22 18.6
003C4F10 2019-02-13 08:58:34 20.8 21 18.7
003C4F10 2019-02-13 08:28:16 20.8 21 18.7
003C4F10 2019-02-13 07:58:01 20.8 20 18.7
003C4F10 2019-02-13 07:27:42 20.8 20 18.7
003C4F10 2019-02-13 06:57:28 20.8 20 18.6
003C4F10 2019-02-13 06:27:12 20.8 20 18.5
003C4F10 2019-02-13 05:56:56 20.8 20 18.4
003C4F10 2019-02-13 05:26:39 20.8 20 18.3
003C4F10 2019-02-13 04:56:24 20.8 20 17.8
003C4F10 2019-02-13 04:26:08 20.8 20 17.5
003C4F10 2019-02-13 03:55:52 20.8 20 17.3
003C4F10 2019-02-13 03:25:36 20.8 20 17.1
003C4F10 2019-02-13 02:55:20 20.9 20 16.6
003C4F10 2019-02-13 02:25:04 20.9 20 16.2
003C4F10 2019-02-13 01:54:51 20.9 19 15.3
003C4F10 2019-02-13 01:24:32 20.9 20 15.2
003C4F10 2019-02-13 00:54:17 20.9 20 15.1
003C4F10 2019-02-13 00:24:01 20.9 20 14.7
003C4F10 2019-02-12 23:53:46 21 20 13.9
003C4F10 2019-02-12 23:23:30 21 20 13.5
003C4F10 2019-02-12 22:53:12 21 20 13.5
003C4F10 2019-02-12 22:22:56 21.1 20 12.9
003C4F10 2019-02-12 21:52:39 21.2 21 13.2
003C4F10 2019-02-12 21:22:22 21.3 21 13.3
003C4F10 2019-02-12 20:52:05 21.4 21 13.2
003C4F10 2019-02-12 20:21:49 21.4 21 12.8
003C4F10 2019-02-12 19:51:34 21.5 21 12.7
003C4F10 2019-02-12 19:21:21 21.6 21 12.7
003C4F10 2019-02-12 18:51:01 21.6 20 13.7
003C4F10 2019-02-12 18:20:46 21.7 20 13.7
003C4F10 2019-02-12 17:50:34 21.8 20 14.2
003C4F10 2019-02-12 17:20:16 22 20 14.6
003C4F10 2019-02-12 16:49:23 22.1 20 15.1
003C4F10 2019-02-12 16:19:05 22.1 20 15.5
003C4F10 2019-02-12 15:48:52 22.2 20 15.8
003C4F10 2019-02-12 15:18:36 22.2 20 16.1
003C4F10 2019-02-12 14:48:24 21.9 21 16
003C4F10 2019-02-12 14:18:06 21.5 21 16.3
003C4F10 2019-02-12 13:47:48 21.4 21 16.5
003C4F10 2019-02-12 13:17:32 21.3 22 16.6
003C4F10 2019-02-12 12:47:16 21.3 22 17.1
003C4F10 2019-02-12 12:17:01 21.2 22 17.2
003C4F10 2019-02-12 11:46:45 21.2 22 17.2
003C4F10 2019-02-12 11:16:30 21.2 23 17.5
003C4F10 2019-02-12 10:46:15 21.1 23 17.8
003C4F10 2019-02-12 10:16:00 21 24 17.9
003C4F10 2019-02-12 09:45:45 21 24 18.3
003C4F10 2019-02-12 09:15:30 20.9 24 18.4
003C4F10 2019-02-12 08:45:15 20.9 25 18.4
003C4F10 2019-02-12 08:15:02 20.8 25 18.7
003C4F10 2019-02-12 07:44:44 20.8 26 18.7
003C4F10 2019-02-12 07:14:27 20.9 26 18.9
003C4F10 2019-02-12 06:44:11 20.8 26 20.7
003C4F10 2019-02-12 06:13:55 20.9 27 20.7
003C4F10 2019-02-12 05:43:39 20.9 27 20.7
003C4F10 2019-02-12 05:13:23 20.9 27 20.6
003C4F10 2019-02-12 04:43:08 20.9 27 20.7
003C4F10 2019-02-12 04:12:53 20.9 27 20.7
003C4F10 2019-02-12 03:42:39 20.9 27 20.8
003C4F10 2019-02-12 03:12:23 20.9 27 20.9
003C4F10 2019-02-12 02:42:07 20.9 27 20.9
003C4F10 2019-02-12 02:11:51 20.9 27 21.1
003C4F10 2019-02-12 01:41:38 21 27 21.2
003C4F10 2019-02-12 01:11:24 21 27 21.3
003C4F10 2019-02-12 00:41:12 21 27 21.5
003C4F10 2019-02-12 00:10:56 21 27 21.5
003C4F10 2019-02-11 23:40:43 21.1 27 21.7
003C4F10 2019-02-11 23:10:30 21.1 27 21.9
003C4F10 2019-02-11 22:40:15 21.2 27 22
003C4F10 2019-02-11 22:10:00 21.3 27 22.1
003C4F10 2019-02-11 21:39:46 21.3 27 22.3
003C4F10 2019-02-11 21:09:35 21.4 27 22.3
003C4F10 2019-02-11 20:39:18 21.4 28 22.5
003C4F10 2019-02-11 20:09:04 21.5 27 22.9
003C4F10 2019-02-11 19:38:50 21.6 27 23
003C4F10 2019-02-11 19:08:37 21.7 27 23.6
003C4F10 2019-02-11 18:38:21 21.8 28 24.1
003C4F10 2019-02-11 18:08:08 21.9 28 18.7
003C4F10 2019-02-11 17:37:51 22 28 17.1
003C4F10 2019-02-11 17:07:36 22.1 28 18.7
003C4F10 2019-02-11 16:37:20 22.2 28 20.9
003C4F10 2019-02-11 16:07:02 22.4 34 0